Regional Weather Roundup
Issued by NWS

Home | Current Version | Previous Version | Graphics & Text | Print | Product List | Glossary On
Versions: 1 2 3 4 5 6 7 8 9 10 11 12 13 14 15 16 17 18 19 20 21 22 23 24 25 26 27 28 29 30 31 32 33 34 35 36 37 38 39 40 41 42 43 44 45 46 47 48 49 50
000
ASUS43 KLOT 031003
RWRIL

ILLINOIS REGIONAL WEATHER ROUNDUP
NATIONAL WEATHER SERVICE CHICAGO/ROMEOVILLE IL
400 AM CST SAT DEC 03 2016

NOTE: "FAIR" INDICATES FEW OR NO CLOUDS BELOW 12,000 FEET WITH NO
SIGNIFICANT WEATHER AND/OR OBSTRUCTIONS TO VISIBILITY.

* THESE STATIONS ARE NOT UNDER NWS QUALITY CONTROL. THEY ALSO MAY NOT
  REPORT WEATHER SUCH AS PRECIPITATION OR FOG.

ILZ001-002-007-009-015-016-024-031100-
NORTHWEST ILLINOIS

CITY           SKY/WX    TMP DP  RH WIND       PRES   REMARKS
MOLINE         CLOUDY    34  25  69 W9        30.37  WCI  27
STERLING*      CLOUDY    32  25  75 NW6       30.36S WCI  26
SAVANNA*       CLOUDY    32  24  71 W3        30.36S
$$

ILZ003-004-008-010-011-017-018-031100-
NORTH CENTRAL ILLINOIS

CITY           SKY/WX    TMP DP  RH WIND       PRES   REMARKS
ROCKFORD       NOT AVBL
$$

ILZ005-006-012>014-019>023-031100-
NORTHEAST ILLINOIS

CITY           SKY/WX    TMP DP  RH WIND       PRES   REMARKS
CHICAGO-OHARE  CLOUDY    33  24  69 W9        30.33S WCI  25
CHICAGO-MIDWAY CLOUDY    34  21  59 W6        30.34R WCI  29
AURORA         CLOUDY    33  26  75 W6        30.34  WCI  28
JOLIET*        CLOUDY    35  26  70 W3        30.36R
WAUKEGAN       CLOUDY    32  23  69 W3        30.31S
DUPAGE AIRPORT CLOUDY    32  22  66 W7        30.33  WCI  26
KANKAKEE*      CLOUDY    34  28  79 W7        30.35S WCI  28
WHEELING       CLOUDY    33  23  66 NW7       30.34  WCI  27
MORRIS*        CLOUDY    33  28  80 W3        30.35R
ROMEOVILLE*    CLOUDY    32  27  82 W6        30.34S WCI  27
NORTHERLY ISL    N/A     34  23  64 W5          N/A  WCI  30
$$

LMZ740>746-031100-
SOUTHERN LAKE MICHIGAN

STATION/POSITION SKY/WX   TEMP    WIND        PRES    VSBY  WAVE
                          AIR SEA DIR/SP/G                  HT/PER
                          (F)     (DEG/KT/KT) (MB)    (MI)  (FT/S)
SOUTHERN BUOY              36 49  250/  8/ 12 1026.4          1/ 4
HARRISON CRIB              35     250/  9/ 12   N/A
BURNHAM HARBOR             34     310/  7/ 10   N/A
CALUMET HARBOR             33     230/  5/  8 1026.4R
BURNS HARBOR               36     230/ 10/ 14 1027.4R
MICHIGAN CITY              36     260/  5/  5   N/A
$$

ILZ025>027-034>036-040-047-049-050-058-095>099-031100-
WEST-CENTRAL ILLINOIS

CITY           SKY/WX    TMP DP  RH WIND       PRES   REMARKS
QUINCY         CLOUDY    33  31  92 NE3       30.36R
JACKSONVILLE*  CLOUDY    33  32  95 CALM      30.37S
PITTSFIELD*    CLEAR     30  28  92 CALM      30.37R
$$

ILZ028>032-037-038-041>044-048-051>054-059>061-031100-
CENTRAL ILLINOIS

CITY           SKY/WX    TMP DP  RH WIND       PRES   REMARKS
PONTIAC        CLOUDY    34  31  91 W9        30.37R WCI  26
BLOOMINGTON    CLOUDY    34  27  75 W8        30.36R WCI  27
DECATUR        CLOUDY    36  29  75 CALM      30.36
PEORIA         NOT AVBL
LACON*         CLOUDY    33  27  78 NW7       30.36F WCI  26
LINCOLN*       CLOUDY    37  32  84 CALM      30.37S
SPRINGFIELD    CLOUDY    36  32  85 CALM      30.37S
TAYLORVILLE    CLOUDY    32  32  99 N3        30.37R
$$

ILZ033-039-045-046-055>057-062-063-031100-
EAST-CENTRAL ILLINOIS

CITY           SKY/WX    TMP DP  RH WIND       PRES   REMARKS
CHAMPAIGN      CLOUDY    35  28  75 W3        30.35F
RANTOUL*       CLOUDY    37  29  74 CALM      30.34S
MATTOON        CLOUDY    36  29  75 CALM      30.35R
$$

ILZ079-100>102-031100-
SOUTHWEST ILLINOIS

CITY           SKY/WX    TMP DP  RH WIND       PRES   REMARKS
ALTON          PTCLDY    29  28  97 N3        30.36F
BELLEVILLE     CLOUDY    29  28  99 CALM      30.35F
CAHOKIA*       CLOUDY    30  27  88 CALM      30.36F
$$

ILZ064>066-069>071-074>076-080>082-084>086-088>090-092>094-031100-
SOUTH-CENTRAL ILLINOIS

CITY           SKY/WX    TMP DP  RH WIND       PRES   REMARKS
CARBONDALE     CLOUDY    29  29 100 CALM      30.37S FOG
EFFINGHAM*     CLOUDY    37  36  95 CALM      30.39R
MARION         CLOUDY    32  30  93 CALM      30.38R FOG
METROPOLIS*    CLOUDY    32  29  92 CALM      30.37S
$$

ILZ067-068-072-073-078-083-087-091-031100-
SOUTHEAST ILLINOIS

CITY           SKY/WX    TMP DP  RH WIND       PRES   REMARKS
LAWRENCEVILLE  CLOUDY    39  33  79 CALM      30.37S
FLORA*         MOCLDY    37  33  88 CALM      30.37S
FAIRFIELD*     CLOUDY    29  29  99 CALM      30.36S
HARRISBURG*    PTCLDY    28  28  97 CALM      30.38R FOG
CARMI*         PTCLDY    29  29  99 CALM      30.37R FOG
$$

ABBREVIATIONS USED IN REMARKS
   TC - TEMPERATURE IN CELSIUS
  WCI - WIND CHILL INDEX
   HX - HEAT INDEX
  VSB - VISIBILITY
$$




USA.gov is the U.S. government's official web portal to all federal, state and local government web resources and services.